Date,Time,Air Temperature,Dewpoint,Windchill,Heat Index,RH,3m Max Wind Speed,3m Mean Wind Speed,3m Wind Direction,Rain,Solar Radiation
,,F,F,F,F,%,MPH,MPH,deg,in,MJ/m^2
2024-03-28,04:05,32.2,16.3,32.2,32.2,51.5,3.5,1.6,72.2,0.0,0.000002030405
2024-03-28,04:10,32.3,16.2,32.3,32.3,51.0,3.1,1.7,75.2,0.0,0.00001421326
2024-03-28,04:15,32.9,16.4,32.9,32.9,50.2,5.3,2.4,77.0,0.0,0.000008121988
2024-03-28,04:20,33.1,16.8,33.1,33.1,50.8,4.7,2,76.4,0.0,0.000006091625
2024-03-28,04:25,33.1,16.8,33.1,33.1,50.8,5.3,3.2,69.2,0.0,0.00001218359
2024-03-28,04:30,33.1,16.9,33.1,33.1,50.9,5.6,2.8,49.9,0.0,0.000006091858
2024-03-28,04:35,33.3,17.1,33.3,33.3,50.9,3.8,2.5,70.4,0.0,0.000008122593
2024-03-28,04:40,33.1,17.4,33.1,33.1,51.9,6.3,3.2,56.1,0.0,0.000008122667
2024-03-28,04:45,32.9,18,32.9,32.9,53.8,6.5,2.6,72.4,0.0,0.000004061323
2024-03-28,04:50,32.6,17.9,32.6,32.6,54.2,5.6,2.7,52.4,0.0,0.00001015318
2024-03-28,04:55,32.5,17.7,32.5,32.5,54.2,5.5,3.3,69.2,0.0,0.000010153
2024-03-28,05:00,32.3,17.7,32.3,32.3,54.6,4.4,2.5,70.5,0.0,0.00001624444
2024-03-28,05:05,32.4,18,32.4,32.4,54.8,6.7,3.3,89.1,0.0,0.00002436604
2024-03-28,05:10,32.2,17.9,32.2,32.2,55.0,4.7,2.5,61.0,0.0,0.00002233513
2024-03-28,05:15,31.9,17.7,31.9,31.9,55.3,4.4,1.8,77.2,0.0,0.00003045652
2024-03-28,05:20,31.7,17.5,31.7,31.7,55.5,4.9,2.7,95.9,0.0,0.00003654755
2024-03-28,05:25,31.4,17.3,31.4,31.4,55.7,4.6,2.1,81.1,0.0,0.00002842651
2024-03-28,05:30,31.4,17.3,31.4,31.4,55.6,4.7,2.6,78.8,0.0,0.00003451776
2024-03-28,05:35,31.7,17.5,31.7,31.7,55.5,6,2.8,84.1,0.0,0.00002030443
2024-03-28,05:40,31.8,17.8,31.8,31.8,55.7,5.3,3.2,90,0.0,0.00002436549
2024-03-28,05:45,31.4,17.5,31.4,31.4,56.0,5.5,3.3,76.3,0.0,0.00001218281
2024-03-28,05:50,31.2,17.4,31.2,31.2,56.1,4.2,2.5,70.4,0.0,0.00002436587
2024-03-28,05:55,31.2,17.4,31.2,31.2,56.1,4.6,2.5,51.1,0.0,0.00002842742
2024-03-28,06:00,31.2,17.2,31.2,31.2,55.8,4.4,2.7,74.7,0.0,0.00002639739
2024-03-28,06:05,31.2,17.2,31.2,31.2,55.8,5.6,2.6,67.6,0.0,0.00004670398
2024-03-28,06:10,31,17.3,31.0,31,56.4,4.4,2.2,75.8,0.0,0.0000284292
2024-03-28,06:15,30.9,17.2,30.9,30.9,56.2,4.7,2.3,74.7,0.0,0.00002842993
2024-03-28,06:20,31.1,17.5,31.1,31.1,56.8,4.2,1.9,71.8,0.0,0.0000345232
2024-03-28,06:25,30.7,17.6,30.7,30.7,57.8,3.7,2,75.4,0.0,0.00003655487
2024-03-28,06:30,30.9,17.6,30.9,30.9,57.2,6.2,3,81,0.0,0.00003452449
2024-03-28,06:35,31,17.5,31.0,31,57.0,4.9,2.4,75.8,0.0,0.00004264845
2024-03-28,06:40,31.1,17.7,31.1,31.1,57.1,3.8,2,76.3,0.0,0.00005889585
2024-03-28,06:45,31.1,17.7,31.1,31.1,57.1,4,2.1,84.4,0.0,0.00006092681
2024-03-28,06:50,31.7,17.5,31.7,31.7,55.1,6.2,3.9,81.6,0.0,0.00007717433
2024-03-28,06:55,32.1,17.8,32.1,32.1,55.2,5.8,2.9,68.1,0.0,0.0002782323
2024-03-28,07:00,32,17.6,32.0,32,54.9,7.2,3.4,89.4,0.0,0.00085093
2024-03-28,07:05,32,17.8,32.0,32,55.4,7.2,3.4,76.0,0.0,0.001598275
2024-03-28,07:10,31.9,18.2,31.9,31.9,56.6,6.5,2.8,47.6,0.0,0.002256267
2024-03-28,07:15,31.8,18.3,31.8,31.8,57.0,6.7,3.3,79.2,0.0,0.003584444
2024-03-28,07:20,32,18.4,32.0,32,57.0,5.1,3.4,79.9,0.0,0.005168549
2024-03-28,07:25,32,18.3,32.0,32,56.5,5.8,3.2,72.0,0.0,0.006151495
2024-03-28,07:30,32,18.3,32.0,32,56.5,6.9,2.5,60.2,0.0,0.007995497
2024-03-28,07:35,32.2,18.4,32.2,32.2,56.4,5.8,3.4,72.9,0.0,0.01060927
2024-03-28,07:40,32.6,18.7,32.6,32.6,56.2,7.1,3.4,75.5,0.0,0.01394196
2024-03-28,07:45,33,18.8,33.0,33,55.5,6,3.4,79.5,0.0,0.01826369
2024-03-28,07:50,33.8,18.9,33.8,33.8,54.1,7.6,3.7,72.3,0.0,0.03064982
2024-03-28,07:55,34.5,19,34.5,34.5,52.7,7.4,4.2,65.8,0.0,0.04333007
2024-03-28,08:00,35,18.7,35.0,35,51.0,6.7,3.8,87.6,0.0,0.0451733
2024-03-28,08:05,35.5,18.9,35.5,35.5,50.4,6.5,4.5,74.0,0.0,0.05268651
2024-03-28,08:10,35.3,18.8,35.3,35.3,50.5,6.9,4.1,66.8,0.0,0.03011956
2024-03-28,08:15,35.3,18.8,35.3,35.3,50.6,7.6,3.5,83,0.0,0.03891298
2024-03-28,08:20,36.1,19,36.1,36.1,49.5,6.9,4.5,78.1,0.0,0.0579946
2024-03-28,08:25,37,19.1,37.0,37,48.0,9,5.4,80.2,0.0,0.07308058
2024-03-28,08:30,37.7,18.8,37.7,37.7,46.1,8.8,5,68.0,0.0,0.07684512
2024-03-28,08:35,38.2,19,38.2,38.2,45.6,9.6,5,69.2,0.0,0.08153123
2024-03-28,08:40,38.6,19.3,38.6,38.6,45.4,7.2,4,82.1,0.0,0.08122569
2024-03-28,08:45,39.1,19.7,39.1,39.1,45.5,8.8,4.4,77.4,0.0,0.08618373
2024-03-28,08:50,40.4,20,40.4,40.4,43.7,6.7,3.5,73.0,0.0,0.09336428
2024-03-28,08:55,40.1,19.6,40.1,40.1,43.5,8.1,4.7,82.8,0.0,0.1004801
2024-03-28,09:00,40.8,19.7,40.8,40.8,42.5,8,4.4,83.8,0.0,0.1029838
2024-03-28,09:05,41.4,20.4,41.4,41.4,42.7,6.5,4.5,62.7,0.0,0.1052562
2024-03-28,09:10,41.8,19.9,41.8,41.8,41.2,6.7,4.3,62.1,0.0,0.1003378
2024-03-28,09:15,41.4,20.6,41.4,41.4,43.1,7.4,4.4,80.9,0.0,0.09552174
2024-03-28,09:20,42.5,21.2,42.5,42.5,42.3,5.6,3.4,76.0,0.0,0.1138935
2024-03-28,09:25,43.3,21.6,43.3,43.3,41.8,8.7,3.4,90.2,0.0,0.1156268
2024-03-28,09:30,43.7,21.1,43.7,43.7,40.3,7.6,4,82.9,0.0,0.1120599
2024-03-28,09:35,44.5,21.6,44.5,44.5,39.9,5.6,2.6,75.3,0.0,0.09852466
2024-03-28,09:40,44,21.8,44.0,44,41,6.2,3.2,89.8,0.0,0.09403428
2024-03-28,09:45,44.9,22,44.9,44.9,40.0,5.1,2.6,54.9,0.0,0.1090439
2024-03-28,09:50,45.1,21.4,45.1,45.1,38.6,5.1,2.4,85.2,0.0,0.09604218
2024-03-28,09:55,45.5,21.9,45.5,45.5,38.9,4.9,2.9,56.7,0.0,0.1220394
2024-03-28,10:00,46.5,22.3,46.5,46.5,38.1,7.2,2.9,56.2,0.0,0.1552047
2024-03-28,10:05,47.7,22.6,47.7,47.7,37.0,6.5,3.4,97.7,0.0,0.1529189
2024-03-28,10:10,48.6,23.4,48.6,48.6,36.8,6.2,3,70.2,0.0,0.1662265
2024-03-28,10:15,48.5,21.1,48.5,48.5,33.6,5.3,3,43.7,0.0,0.1530497
2024-03-28,10:20,49.4,21.4,49.4,49.4,32.9,6.5,3.4,75.7,0.0,0.1598108
2024-03-28,10:25,48,21.9,48.0,48,35.4,5.3,3.5,58.8,0.0,0.1471926
2024-03-28,10:30,48.8,22.4,48.8,48.8,35.2,6.7,3.2,64.3,0.0,0.1709716
2024-03-28,10:35,49.4,21.6,49.4,49.4,33.2,6.5,2.7,73.8,0.0,0.1378623
2024-03-28,10:40,49.9,21.3,49.9,49.9,32.1,4.9,1.9,98.7,0.0,0.1400381
2024-03-28,10:45,50.7,21.6,50.7,50.7,31.7,6.2,2.6,63.2,0.0,0.1922497
2024-03-28,10:50,50.9,22.5,50.9,50.9,32.7,5.8,3.8,76.9,0.0,0.1457078
2024-03-28,10:55,51,22.7,51.0,51,32.9,6.2,3.6,74.6,0.0,0.1836058
2024-03-28,11:00,52.9,23.1,52.9,52.9,31.1,6,2.5,82.4,0.0,0.1631613
2024-03-28,11:05,52.8,22.7,52.8,52.8,30.6,6.7,3.7,60.9,0.0,0.1928963
2024-03-28,11:10,53.3,21.8,53.3,53.3,29.0,5.8,3.1,66.4,0.0,0.1949323
2024-03-28,11:15,53.7,22.3,53.7,53.7,29.1,6.5,3.4,86.5,0.0,0.1762941
2024-03-28,11:20,52.8,22.3,52.8,52.8,30.1,6.5,4.2,43.4,0.0,0.1860384
2024-03-28,11:25,53,22.4,53.0,53,30.0,6.9,3.4,63.6,0.0,0.177256
2024-03-28,11:30,53.9,22.8,53.9,53.9,29.5,7.1,3.9,36.0,0.0,0.2124765
2024-03-28,11:35,54.2,22.6,54.2,54.2,28.9,7.8,4.6,44.2,0.0,0.2318482
2024-03-28,11:40,54.3,22.3,54.3,54.3,28.5,9,4.6,34.9,0.0,0.2247534
2024-03-28,11:45,54.7,22,54.7,54.7,27.7,7.4,4.5,46.4,0.0,0.2238077
2024-03-28,11:50,55,22.6,55.0,55,28.2,6.2,4.1,42.8,0.0,0.2270495
2024-03-28,11:55,54.5,23.7,54.5,54.5,30.1,8.1,4.9,26.4,0.0,0.2242973
2024-03-28,12:00,55.7,22.3,55.7,55.7,27.1,7.6,4.1,49.2,0.0,0.2185811
2024-03-28,12:05,56.4,22.4,56.4,56.4,26.6,7.6,3.5,51.8,0.0,0.2292552
2024-03-28,12:10,56.9,24.2,56.9,56.9,28.1,6.2,3.7,50.7,0.0,0.2309222
2024-03-28,12:15,57.4,23.5,57.4,57.4,26.8,7.1,3.6,59.3,0.0,0.2325118
2024-03-28,12:20,57.8,22.2,57.8,57.8,25.0,6.5,3.5,59.4,0.0,0.2337871
2024-03-28,12:25,58,22.5,58.0,58,25.2,8.1,3.8,93.9,0.0,0.2348034
2024-03-28,12:30,57.3,22.7,57.3,57.3,26.0,5.8,2.7,40.2,0.0,0.236293
2024-03-28,12:35,56.7,23.4,56.7,56.7,27.4,8.3,4.5,25.9,0.0,0.2377966
2024-03-28,12:40,57.9,23.2,57.9,57.9,26,7.8,4.5,58.9,0.0,0.237488
2024-03-28,12:45,58.7,24.9,58.7,58.7,27.1,5.5,3.8,111.4,0.0,0.2380127
2024-03-28,12:50,58.4,23.3,58.4,58.4,25.7,8.5,4.3,35.7,0.0,0.2391353
2024-03-28,12:55,58.5,22.2,58.5,58.5,24.5,12.8,7.6,129.8,0.0,0.2400494
2024-03-28,13:00,58.3,22,58.3,58.3,24.4,11.9,7.5,145.4,0.0,0.2400299
2024-03-28,13:05,57.9,20.6,57.9,57.9,23.3,12.2,8.6,174.4,0.0,0.2408839
2024-03-28,13:10,57.8,20.8,57.8,57.8,23.6,11.2,7.3,174.2,0.0,0.2411851
2024-03-28,13:15,57.5,21.6,57.5,57.5,24.7,8.1,5.9,260.8,0.0,0.2412486
2024-03-28,13:20,57.3,20.5,57.3,57.3,23.7,9.4,5.2,264.1,0.0,0.2413986
2024-03-28,13:25,58.3,20.3,58.3,58.3,22.7,11.3,4.3,262.9,0.0,0.2418535
2024-03-28,13:30,58.2,20.2,58.2,58.2,22.6,7.6,5.2,287.8,0.0,0.2416557
2024-03-28,13:35,58.8,20.9,58.8,58.8,22.9,7.2,4.8,135.2,0.0,0.2410841
2024-03-28,13:40,60.9,24,60.9,60.9,24.2,7.2,4.1,140.3,0.0,0.2409283
2024-03-28,13:45,59.6,22.5,59.6,59.6,23.8,7.1,4.3,289.2,0.0,0.2410035
2024-03-28,13:50,60.5,22.6,60.5,60.5,23.2,8.1,3.7,197,0.0,0.2409731
2024-03-28,13:55,59.4,20,59.4,59.4,21.5,12.1,7.8,216.9,0.0,0.2396863
2024-03-28,14:00,60.4,21.7,60.4,60.4,22.4,10.3,7.1,192.2,0.0,0.2389243
2024-03-28,14:05,59.7,18.4,59.7,59.7,19.9,15.1,9.1,232.4,0.0,0.2385473
2024-03-28,14:10,60.4,21.9,60.4,60.4,22.5,13.1,6.6,223.9,0.0,0.2365808
2024-03-28,14:15,60.2,17.8,60.2,60.2,19,10.5,7.1,185.6,0.0,0.2350539
2024-03-28,14:20,61.6,21.2,61.6,61.6,20.9,17.6,8.9,188.8,0.0,0.2336974
2024-03-28,14:25,60.2,20.6,60.2,60.2,21.5,13.3,9.8,247.5,0.0,0.2323823
2024-03-28,14:30,60.2,19.7,60.2,60.2,20.6,12.8,7.1,240.9,0.0,0.2306192
2024-03-28,14:35,61.1,18.1,61.1,61.1,18.7,4.7,2.1,231.9,0.0,0.2288273
2024-03-28,14:40,60.8,24.9,60.8,60.8,25.1,8.8,6,272.7,0.0,0.228233
2024-03-28,14:45,60.3,18.8,60.3,60.3,19.9,10.5,7.4,249.2,0.0,0.2260101
2024-03-28,14:50,61.2,18,61.2,61.2,18.6,8.1,4.1,222.9,0.0,0.2238721
2024-03-28,14:55,61.3,17.3,61.3,61.3,17.9,14.6,8.9,194.3,0.0,0.2220661
2024-03-28,15:00,60.7,17.1,60.7,60.7,18.2,13.3,9.5,199.5,0.0,0.2194935
2024-03-28,15:05,61.8,17.5,61.8,61.8,17.8,7.4,2.5,226.4,0.0,0.2174704
2024-03-28,15:10,62.5,17.6,62.5,62.5,17.4,8.8,5,273.7,0.0,0.215565
2024-03-28,15:15,62.1,14.2,62.1,62.1,15.2,13.9,9.6,227.6,0.0,0.2130148
2024-03-28,15:20,62.1,17.1,62.1,62.1,17.2,15.5,9.2,228.5,0.0,0.2100049
2024-03-28,15:25,61.7,17.2,61.7,61.7,17.6,15.3,10.5,231.7,0.0,0.2072658
2024-03-28,15:30,61.3,17.5,61.3,61.3,18.1,11.3,7.9,219.1,0.0,0.2043442
2024-03-28,15:35,61.8,17.5,61.8,61.8,17.8,11.3,7.4,263.7,0.0,0.2016162
2024-03-28,15:40,61.9,15.1,61.9,61.9,16.0,10.3,6.6,267.7,0.0,0.1985951
2024-03-28,15:45,62.1,17.5,62.1,62.1,17.6,11.5,7.5,240,0.0,0.1948638
2024-03-28,15:50,62.6,17.4,62.6,62.6,17.2,12.4,7.8,218,0.0,0.1909781
2024-03-28,15:55,62.1,15.2,62.1,62.1,16.0,16.5,10.8,230.8,0.0,0.187444
2024-03-28,16:00,62.1,17.5,62.1,62.1,17.6,7.8,5.8,284.4,0.0,0.184004
2024-03-28,16:05,62.7,15.4,62.7,62.7,15.7,6.7,4.3,237.7,0.0,0.1810353
2024-03-28,16:10,63,17.8,63.0,63,17.2,9.4,5,231.6,0.0,0.1777078
2024-03-28,16:15,63.2,15.7,63.2,63.2,15.7,11.5,7.4,226.7,0.0,0.1741978
2024-03-28,16:20,63.2,17.1,63.2,63.2,16.6,7.4,4.3,220.3,0.0,0.1709263
2024-03-28,16:25,62.9,14.7,62.9,62.9,15.1,14,6.4,252.4,0.0,0.1673159
2024-03-28,16:30,63.8,16.1,63.8,63.8,15.6,16,10.1,244,0.0,0.1628809
2024-03-28,16:35,62.9,13.2,62.9,62.9,14.1,17.1,12.3,244.2,0.0,0.1584849
2024-03-28,16:40,63.4,18.5,63.4,63.4,17.5,14.7,11.1,251.3,0.0,0.1543117
2024-03-28,16:45,63.4,13.4,63.4,63.4,14.0,15.5,10.4,239.1,0.0,0.15024
2024-03-28,16:50,63.4,12.8,63.4,63.4,13.7,14.2,8,254.2,0.0,0.1462585
2024-03-28,16:55,63.6,16.2,63.6,63.6,15.8,11.3,6.3,271.7,0.0,0.1422071
2024-03-28,17:00,63.3,19.2,63.3,63.3,18.1,12.1,8.9,249.1,0.0,0.1377147
2024-03-28,17:05,63,18.6,63.0,63,17.9,14.2,10.3,267.6,0.0,0.1335795
2024-03-28,17:10,63.3,18.4,63.3,63.3,17.5,10.3,6.3,276.6,0.0,0.1291114
2024-03-28,17:15,63.5,17.9,63.5,63.5,17.0,13.1,7.1,268.6,0.0,0.1244198
2024-03-28,17:20,62.8,16.6,62.8,62.8,16.5,8.5,5.9,293.5,0.0,0.1199879
2024-03-28,17:25,62.8,18,62.8,62.8,17.5,10.5,7.9,267,0.0,0.1154025
2024-03-28,17:30,63.1,15.8,63.1,63.1,15.8,8.8,6.5,244.6,0.0,0.1106147
2024-03-28,17:35,62.8,18.5,62.8,62.8,17.9,9.9,7.2,247.9,0.0,0.1061096
2024-03-28,17:40,62.8,16.7,62.8,62.8,16.6,7.2,4.8,278,0.0,0.1016088
2024-03-28,17:45,63.1,16.8,63.1,63.1,16.5,6.7,4.1,285.5,0.0,0.09750206
2024-03-28,17:50,63.2,15.7,63.2,63.2,15.6,11.3,7.5,230.5,0.0,0.08204685
2024-03-28,17:55,62.8,15.3,62.8,62.8,15.6,12.6,8.7,208.2,0.0,0.08710343
2024-03-28,18:00,63.2,16.4,63.2,63.2,16.2,10.6,8.2,201.3,0.0,0.0836942
2024-03-28,18:05,62.9,17,62.9,62.9,16.7,14.4,11,211.2,0.0,0.08000124
2024-03-28,18:10,62.8,16.2,62.8,62.8,16.3,14,11.1,218.1,0.0,0.07615427
2024-03-28,18:15,62.7,18,62.7,62.7,17.5,13.7,9.8,229.2,0.0,0.07158572
2024-03-28,18:20,62.9,17.2,62.9,62.9,16.9,13.1,10.9,215.8,0.0,0.06483101
2024-03-28,18:25,62.7,17.3,62.7,62.7,17.1,13.7,10.4,206.1,0.0,0.05948088
2024-03-28,18:30,62.5,17.6,62.5,62.5,17.4,14.9,11.5,208.5,0.0,0.05478003
2024-03-28,18:35,62,18.4,62.0,62,18.3,14.9,10.7,213.6,0.0,0.05065798
2024-03-28,18:40,62,16.9,62.0,62,17.2,16.2,12.1,218.1,0.0,0.04588071
2024-03-28,18:45,61.5,16.7,61.5,61.5,17.3,14.4,11.4,219.4,0.0,0.03933047
2024-03-28,18:50,61.5,16.6,61.5,61.5,17.3,13.7,11,213.9,0.0,0.0368503
2024-03-28,18:55,61.3,16.9,61.3,61.3,17.6,13.3,10.8,212.1,0.0,0.03113006
2024-03-28,19:00,60.9,18,60.9,60.9,18.7,10.8,9,210.9,0.0,0.02464809
2024-03-28,19:05,60.6,15.7,60.6,60.6,17.2,13.7,11.2,221.4,0.0,0.01928287
2024-03-28,19:10,59.9,17.1,59.9,59.9,18.7,11,9.4,217,0.0,0.01467837
2024-03-28,19:15,59.1,17.2,59.1,59.1,19.3,9.6,7.6,211.4,0.0,0.01121324
2024-03-28,19:20,58.2,17.9,58.2,58.2,20.5,8.3,6.4,205,0.0,0.00720692
2024-03-28,19:25,57.5,18.4,57.5,57.5,21.5,7.6,6.1,201.8,0.0,0.004666215
2024-03-28,19:30,55.9,18.3,55.9,55.9,22.8,6.5,4.8,191.4,0.0,0.002386929
2024-03-28,19:35,54.6,19.3,54.6,54.6,24.8,5.5,4.6,181.4,0.0,0.001241148
2024-03-28,19:40,53.5,19.4,53.5,53.5,26.0,4.9,4.3,171,0.0,0.0006043422
2024-03-28,19:45,52.7,20.3,52.7,52.7,27.8,5.8,4.6,155.9,0.0,0.0003123087
2024-03-28,19:50,52.3,19.7,52.3,52.3,27.5,6.5,5.6,163.4,0.0,0.0001277652
2024-03-28,19:55,51.9,20.6,51.9,51.9,29.0,6.5,5.2,160,0.0,0.00005272929
2024-03-28,20:00,51.4,21.2,51.4,51.4,30.3,4.6,4.1,158.7,0.0,0.000008112578
2024-03-28,20:05,50.6,21.4,50.6,50.6,31.4,4.6,3.8,154.4,0.0,0.000008112878
2024-03-28,20:10,50,21.7,50.0,50,32.6,5.8,4.5,140.1,0.0,0.000004056511
2024-03-28,20:15,50.3,21.3,50.3,50.3,31.7,6,5.5,138.6,0.0,0
2024-03-28,20:20,50.9,22.1,50.9,50.9,32.0,6.3,5.8,141.8,0.0,0
2024-03-28,20:25,50.8,21.7,50.8,50.8,31.6,6.7,5.7,141.8,0.0,0
2024-03-28,20:30,50.4,21.7,50.4,50.4,32.1,6.5,5.4,147,0.0,0
2024-03-28,20:35,50.6,22,50.6,50.6,32.3,6.3,5.7,145.1,0.0,0
2024-03-28,20:40,50.2,22,50.2,50.2,32.8,6.2,5.3,145.4,0.0,0
2024-03-28,20:45,49.8,21.6,49.8,49.8,32.7,7.6,5.9,146.5,0.0,0
2024-03-28,20:50,50.2,22,50.2,50.2,32.8,8.1,7.1,151.6,0.0,0
2024-03-28,20:55,50.2,22,50.2,50.2,32.8,8.7,7.6,154.9,0.0,0
2024-03-28,21:00,49.7,21.4,49.7,49.7,32.5,9,7.9,153.5,0.0,0
2024-03-28,21:05,49.5,22.2,49.5,49.5,33.9,8.5,7.2,156.9,0.0,0
2024-03-28,21:10,49.4,21.1,49.4,49.4,32.5,8.1,7,159.5,0.0,0
2024-03-28,21:15,49.3,22.4,49.3,49.3,34.4,9.4,7.3,156.5,0.0,0
2024-03-28,21:20,48.8,20.9,48.8,48.8,33.0,8,6.8,157.6,0.0,0
2024-03-28,21:25,48.3,21.5,48.3,48.3,34.5,7.6,6.9,155.3,0.0,0
2024-03-28,21:30,48.6,20.9,48.6,48.6,33.2,8.5,6.8,154.5,0.0,0
2024-03-28,21:35,48.8,20.9,48.8,48.8,32.9,8.5,7.4,157.7,0.0,0
2024-03-28,21:40,48.5,20.5,48.5,48.5,32.7,7.4,6.5,164.4,0.0,0
2024-03-28,21:45,47.5,21.5,47.5,47.5,35.4,7.4,6.3,156.1,0.0,0
2024-03-28,21:50,47.7,20.4,47.7,47.7,33.7,7.4,6.4,165.8,0.0,0
2024-03-28,21:55,48.2,20.4,48.2,48.2,33.0,8,7,171.2,0.0,0
2024-03-28,22:00,48.3,20.4,48.3,48.3,32.9,7.2,6.2,164.9,0.0,0
2024-03-28,22:05,48.8,19.5,48.8,48.8,31.0,8.3,6.9,168.6,0.0,0
2024-03-28,22:10,49.2,20.3,49.2,49.2,31.7,8.3,7.1,172.6,0.0,0
2024-03-28,22:15,49.9,18.3,49.9,49.9,28.3,9.4,7.4,181.7,0.0,0
2024-03-28,22:20,49.8,19.9,49.8,49.8,30.4,9,6.8,182.1,0.0,0
2024-03-28,22:25,49.8,18.4,49.8,49.8,28.6,8.1,6.3,178.1,0.0,0
2024-03-28,22:30,50.5,18.4,50.5,50.5,27.8,8.1,7,186.9,0.0,0
2024-03-28,22:35,51,17.8,51.0,51,26.5,8.7,6.6,191.7,0.0,0
2024-03-28,22:40,52.9,16.9,52.9,52.9,23.9,12.1,8.9,207.4,0.0,0
2024-03-28,22:45,53.4,17.8,53.4,53.4,24.3,11,9.5,211.9,0.0,0
2024-03-28,22:50,53.1,18.2,53.1,53.1,25.1,9.7,8.1,207.5,0.0,0
2024-03-28,22:55,50.3,20.2,50.3,50.3,30.3,9.2,7.4,167.3,0.0,0
2024-03-28,23:00,49.6,19.7,49.6,49.6,30.4,10.3,8.1,169.3,0.0,0
2024-03-28,23:05,49,20.1,49.0,49,31.7,9,7.5,168.8,0.0,0
2024-03-28,23:10,48.6,20.3,48.6,48.6,32.3,7.4,6.4,174.6,0.0,0
2024-03-28,23:15,48.5,19.5,48.5,48.5,31.4,9.2,6.9,181.2,0.0,0
2024-03-28,23:20,48.8,19.7,48.8,48.8,31.3,9.7,7.8,178.3,0.0,0
2024-03-28,23:25,48.2,20.1,48.2,48.2,32.5,7.8,6.6,176,0.0,0
2024-03-28,23:30,47.6,19.8,47.6,47.6,32.9,7.8,6.7,178.5,0.0,0
2024-03-28,23:35,48.2,19.2,48.2,48.2,31.4,7.6,6.6,194.1,0.0,0
2024-03-28,23:40,48.3,19.6,48.3,48.3,31.7,7.4,6.1,190.1,0.0,0
2024-03-28,23:45,48.3,20,48.3,48.3,32.3,7.6,6.1,190.1,0.0,0
2024-03-28,23:50,48.4,19.2,48.4,48.4,31.0,8.5,6.9,190.1,0.0,0
2024-03-28,23:55,49.3,18.7,49.3,49.3,29.4,9.9,8.1,206,0.0,0
2024-03-29,00:00,50.7,18.8,50.7,50.7,28.0,12.8,9.8,213.5,0.0,0
2024-03-29,00:05,51,18.9,51.0,51,27.9,14,10.7,213,0.0,0
2024-03-29,00:10,51.3,19.4,51.3,51.3,28.1,14.6,10.9,213.9,0.0,0
2024-03-29,00:15,51,19.4,51.0,51,28.4,13.3,11,214.5,0.0,0
2024-03-29,00:20,51,19.7,51.0,51,28.8,13.1,10.5,219.4,0.0,0
2024-03-29,00:25,50.7,19.4,50.7,50.7,28.8,11.5,9.8,225.7,0.0,0
2024-03-29,00:30,51.5,18.8,51.5,51.5,27.3,14.9,10.8,237.6,0.0,0
2024-03-29,00:35,51.5,20.2,51.5,51.5,28.9,11.3,9.4,243.5,0.0,0
2024-03-29,00:40,51.1,20.2,51.1,51.1,29.4,10.5,8.3,240.7,0.0,0
2024-03-29,00:45,51.5,20.3,51.5,51.5,29.0,12.4,9.5,242.9,0.0,0
2024-03-29,00:50,50,20.5,50.0,50,31.0,9.4,6.7,215,0.0,0
2024-03-29,00:55,49.1,20.2,49.1,49.1,31.6,10.8,7.5,203.1,0.0,0
2024-03-29,01:00,49,20.4,49.0,49,32.1,9.6,7.8,211.5,0.0,0
2024-03-29,01:05,46.6,21.9,46.6,46.6,37.2,8,6.3,176.8,0.0,0
2024-03-29,01:10,46,21,46.0,46,36.8,9.9,8.3,171.1,0.0,0.000002029063
2024-03-29,01:15,45.5,21.8,45.5,45.5,38.7,9,7.2,170.8,0.0,0
2024-03-29,01:20,45.5,21,45.5,45.5,37.4,9.2,8.1,164.7,0.0,0.000002029076
2024-03-29,01:25,44.4,21.8,44.4,44.4,40.5,8.8,7.1,158.7,0.0,0.000002029106
2024-03-29,01:30,43.3,21.4,43.3,43.3,41.3,7.6,6.1,156.3,0.0,0
2024-03-29,01:35,43.8,21.3,43.8,43.8,40.5,8.8,7.3,167.3,0.0,0.000002029211
2024-03-29,01:40,44.3,21.3,44.3,44.3,39.7,8.5,7.5,177.2,0.0,0
2024-03-29,01:45,43.8,21.5,43.8,43.8,40.8,8.8,7.1,179.1,0.0,0
2024-03-29,01:50,42.9,22,42.9,42.9,43.2,9.6,8,169.8,0.0,0
2024-03-29,01:55,42.1,22.2,42.1,42.1,44.7,9.6,8,161.9,0.0,0
2024-03-29,02:00,41.8,21.9,41.8,41.8,44.8,10.3,7.8,163.3,0.0,0
2024-03-29,02:05,42.3,21.8,42.3,42.3,43.8,10.1,8.4,161.2,0.0,0
2024-03-29,02:10,42.4,21.9,42.4,42.4,43.9,9.6,8.4,157.6,0.0,0
2024-03-29,02:15,42.2,22.2,42.2,42.2,44.7,8.7,7.7,156.1,0.0,0
2024-03-29,02:20,42.3,22.1,42.3,42.3,44.3,8.5,7.4,162,0.0,0
2024-03-29,02:25,42.7,21.9,42.7,42.7,43.3,9.2,7.6,160.7,0.0,0
2024-03-29,02:30,43.7,21.6,43.7,43.7,41.3,10.6,8.3,169.7,0.0,0
2024-03-29,02:35,44,22.4,44.0,44,42.2,10.1,8.6,174.8,0.0,0.000002029495
2024-03-29,02:40,44,23,44.0,44,43.3,9.6,8.2,178.9,0.0,0
2024-03-29,02:45,44.3,23.8,44.3,44.3,44.1,9,7.7,184.9,0.0,0.000002029482
2024-03-29,02:50,44.8,23.6,44.8,44.8,42.9,8.1,7.1,185.4,0.0,0
2024-03-29,02:55,45.6,23.8,45.6,45.6,42.0,8,6.4,193.9,0.0,0
2024-03-29,03:00,46.2,24.1,46.2,46.2,41.6,7.1,6.1,200.2,0.0,0
2024-03-29,03:05,46.5,23.6,45.7,46.5,40.1,11,6.8,205.7,0.0,0
2024-03-29,03:10,47.3,23.9,47.3,47.3,39.5,10.5,8.6,207.1,0.0,0
2024-03-29,03:15,48.3,23.7,48.3,48.3,37.8,11.5,9.3,213.4,0.0,0
2024-03-29,03:20,48.3,24.2,48.3,48.3,38.6,10.8,7.7,234.7,0.0,0
2024-03-29,03:25,46.4,24.8,46.4,46.4,42.5,7.1,5.4,270.4,0.0,0
2024-03-29,03:30,45.2,24.4,45.2,45.2,43.7,6.7,4.8,267.2,0.0,0
2024-03-29,03:35,46.2,24.2,46.2,46.2,41.6,10.3,6.4,236.7,0.0,0
2024-03-29,03:40,46.8,22.8,46.8,46.8,38.6,9.9,7.3,211.1,0.0,0
2024-03-29,03:45,47.5,23.8,47.5,47.5,39,9.7,8.2,201.7,0.0,0
2024-03-29,03:50,46.9,23.7,46.9,46.9,39.8,9,7.5,197.5,0.0,0
2024-03-29,03:55,46.8,23.4,46.8,46.8,39.5,7.6,6.3,196.7,0.0,0
2024-03-29,04:00,,,,,,,,,,
